Regional Weather Roundup
Issued by NWS

Home | Current Version | Previous Version | Graphics & Text | Print | Product List | Glossary On
Versions: 1 2 3 4 5 6 7 8 9 10 11 12 13 14 15 16 17 18 19 20 21 22 23 24 25 26 27 28 29 30 31 32 33 34 35 36 37 38 39 40 41 42 43 44 45 46 47 48 49 50
000
ASUS43 KLMK 191102
RWRKY
KENTUCKY REGIONAL WEATHER ROUNDUP
NATIONAL WEATHER SERVICE LOUISVILLE KY
600 AM EST MON FEB 19 2018

NOTE "FAIR" INDICATES FEW OR NO CLOUDS BELOW 12,000 FEET
WITH NO SIGNIFICANT WEATHER AND/OR OBSTRUCTIONS TO VISIBILITY.

KYZ001>023-026-027-061>063-070>075-191200-
WESTERN AND SOUTH CENTRAL KENTUCKY

CITY           SKY/WX    TMP DP  RH WIND       PRES   REMARKS
PADUCAH        CLOUDY    58  53  84 S12       30.04S
HENDERSON      MOCLDY    58  54  86 S20G26    30.03F
OWENSBORO      CLOUDY    57  54  89 S14       30.06S
HOPKINSVILLE   MOCLDY    58  56  95 S10       30.12R
BOWLING GREEN  MOCLDY    58  56  93 S9        30.14S
GLASGOW        NOT AVBL
$$

KYZ024-025-028>034-038-045-046-053-191200-
NORTH CENTRAL KENTUCKY

CITY           SKY/WX    TMP DP  RH WIND       PRES   REMARKS
LOUISVILLE/SDF CLOUDY    59  54  83 S12       30.08S
LOUISVILLE/LOU CLOUDY    58  54  86 S14       30.08F
FORT KNOX      CLOUDY    57  55  91 S12       30.09S
$$

KYZ035>037-039>044-047>052-055>060-089>105-191200-
NORTHEAST KENTUCKY

CITY           SKY/WX    TMP DP  RH WIND       PRES   REMARKS
LEXINGTON      CLOUDY    55  51  86 S12       30.14R
COVINGTON      CLOUDY    53  50  89 S15       30.06S
FRANKFORT      CLOUDY    58  52  80 S12       30.10S
$$

KYZ054-064>069-076>088-106>120-191200-
SOUTHEAST KENTUCKY

CITY           SKY/WX    TMP DP  RH WIND       PRES   REMARKS
JACKSON        CLOUDY    54  48  80 VRB6      30.19R
LONDON         MOCLDY    58  52  80 S9        30.20R
SOMERSET       CLOUDY    57  54  88 S5        30.21R
MIDDLESBORO    CLOUDY    51  47  87 CALM      30.28S
MONTICELLO     NOT AVBL
$$





USA.gov is the U.S. government's official web portal to all federal, state and local government web resources and services.